Torna al catalogo

ARIANE 44LP DEB

AttivoGTO
NORAD 33547·DEBRIS·🇫🇷 France

Lanciato Dec 11, 1988 da Guiana Space Centre

Loading…

TLE

ObsoletoSource: Space-Track

Epoca: Sep 11, 2026, 22:00 UTC

1 33547U 88109W   26254.91694416  .00000087  00000-0  42215-2 0  9998
2 33547   6.4631 180.5077 7018992 166.3749 232.8582  2.40116788226472

Traccia ARIANE 44LP DEB in tempo reale con AllMySat

Download on the App Store